Home > Weather > Rheine > Past weeks

Flag for Germany Weather for the Past 2 Weeks in Rheine, North Rhine-Westphalia, Germany

Now
39 °F

Chilly.


Feels Like: 39 °F
Forecast: 37 / 48 °F
Wind: 2 mph from Southwest

Location: Rheine-Bentlage

Current Time: Apr 28, 2016 at 9:54:29 PM

Latest Report: Apr 28, 2016 at 9:20 PM


Visibility: N/A

Pressure: 29.98 "Hg

Humidity: 87%

Dew Point: 36 °F

Location of RheineLocation

Historic Weather in Rheine — Graph

°F

Rheine Temperature Yesterday

Maximum temperature yesterday: 46 °F (at 3:20 PM)
Minimum temperature yesterday: 36 °F (at 3:20 AM)
Average temperature yesterday: 40 °F

High & Low Weather Summary for the Past Weeks

 TemperatureHumidityPressure
High61 °F (Apr 14, 2:20 PM)100% (Apr 14, 3:20 AM)30.48 "Hg (Apr 14, 3:20 AM)
Low32 °F (Apr 20, 6:20 AM)35% (Apr 28, 2:20 PM)29.39 "Hg (Apr 26, 8:20 AM)
Average45 °F74%29.90 "Hg
* Reported Apr 13 8:20 PM — Apr 28 8:20 PM, Rheine, Weather by CustomWeather, © 2016

Note: Actual official high and low records may vary slightly from our data, if they occured in-between our weather recording intervals... More about our weather records

Advertising

Rheine Weather History for the Previous 24 Hours

Scroll right to see more
 ConditionsComfort  
Time TempWeatherWind HumidityBarometerVisibility
8:20 PM
Thu, Apr 28
41 °FQuite cool.3 mph87%29.95 "HgN/A
7:20 PM41 °FQuite cool.3 mph87%29.98 "HgN/A
6:20 PM45 °FQuite cool.6 mph76%29.95 "HgN/A
5:20 PM46 °FCool.18 mph62%29.95 "HgN/A
4:20 PM50 °FCool.8 mph43%29.92 "HgN/A
3:20 PM52 °FScattered clouds.7 mph44%29.92 "HgN/A
2:20 PM50 °FScattered clouds.10 mph35%29.92 "HgN/A
1:20 PM48 °FScattered clouds.7 mph58%29.92 "HgN/A
12:20 PM46 °FScattered clouds.9 mph62%29.92 "HgN/A
11:20 AM45 °FScattered clouds.7 mph66%29.92 "HgN/A
10:20 AM45 °FScattered clouds.8 mph71%29.92 "HgN/A
9:20 AM43 °FPassing clouds.9 mph76%29.92 "HgN/A
8:20 AM39 °FPassing clouds.10 mph81%29.92 "HgN/A
7:20 AM36 °FScattered clouds.8 mph93%29.89 "HgN/A
6:20 AM34 °FPassing clouds.6 mph93%29.86 "HgN/A
5:20 AM34 °FChilly.5 mph93%29.86 "HgN/A
4:20 AM34 °FChilly.6 mph93%29.86 "HgN/A
3:20 AM36 °FChilly.6 mph87%29.86 "HgN/A
2:20 AM36 °FChilly.7 mph87%29.83 "HgN/A
1:20 AM37 °FChilly.8 mph81%29.83 "HgN/A
12:20 AM37 °FChilly.8 mph81%29.80 "HgN/A
11:20 PM
Wed, Apr 27
39 °FChilly.6 mph81%29.80 "HgN/A
10:20 PM39 °FChilly.7 mph81%29.80 "HgN/A
9:20 PM41 °FQuite cool.7 mph76%29.77 "HgN/A
Weather by CustomWeather, © 2016

See weather overviewHow to use our weather pages